Time,TemperatureF,DewpointF,PressureIn,WindDirection,WindDirectionDegrees,WindSpeedMPH,WindSpeedGustMPH,Humidity,HourlyPrecipIn,Conditions,Clouds,dailyrainin,SoftwareType,DateUTC
2013-03-06 00:00:00,42.8,40.3,29.54,East,83,1.0,7.0,91,0.00,,,0.48,WUHU216DAVISVP2,2013-03-06 05:00:00,
2013-03-06 00:05:00,42.9,40.4,29.54,East,93,0.0,7.0,91,0.00,,,0.00,WUHU216DAVISVP2,2013-03-06 05:05:00,
2013-03-06 00:10:00,42.9,40.4,29.54,ESE,104,4.0,8.0,91,0.00,,,0.00,WUHU216DAVISVP2,2013-03-06 05:10:00,
2013-03-06 00:15:00,42.9,40.4,29.53,East,88,0.0,8.0,91,0.00,,,0.00,WUHU216DAVISVP2,2013-03-06 05:15:00,
2013-03-06 00:20:00,43.1,40.6,29.53,East,100,1.0,6.0,91,0.00,,,0.00,WUHU216DAVISVP2,2013-03-06 05:20:00,
2013-03-06 00:25:00,43.1,40.6,29.53,East,96,2.0,6.0,91,0.00,,,0.00,WUHU216DAVISVP2,2013-03-06 05:25:00,
2013-03-06 00:30:00,42.9,40.4,29.52,ENE,75,4.0,4.0,91,0.00,,,0.00,WUHU216DAVISVP2,2013-03-06 05:30:00,
2013-03-06 00:35:00,43.1,40.6,29.52,ENE,68,1.0,4.0,91,0.00,,,0.00,WUHU216DAVISVP2,2013-03-06 05:35:00,
2013-03-06 00:40:00,43.1,40.6,29.52,North,0,0.0,4.0,91,0.00,,,0.00,WUHU216DAVISVP2,2013-03-06 05:40:00,
2013-03-06 00:45:00,43.2,40.7,29.51,North,6,0.0,6.0,91,0.00,,,0.00,WUHU216DAVISVP2,2013-03-06 05:45:00,
2013-03-06 00:50:00,43.2,40.7,29.51,NW,316,0.0,8.0,91,0.00,,,0.00,WUHU216DAVISVP2,2013-03-06 05:50:00,
2013-03-06 00:55:00,43.5,41.0,29.51,NE,52,0.0,8.0,91,0.00,,,0.00,WUHU216DAVISVP2,2013-03-06 05:55:00,
2013-03-06 01:00:00,43.5,41.0,29.50,NE,52,0.0,4.0,91,0.00,,,0.00,WUHU216DAVISVP2,2013-03-06 06:00:00,
2013-03-06 01:05:00,43.5,41.0,29.50,NE,52,1.0,2.0,91,0.00,,,0.00,WUHU216DAVISVP2,2013-03-06 06:05:00,
2013-03-06 01:10:00,43.6,41.1,29.50,ENE,69,0.0,4.0,91,0.00,,,0.00,WUHU216DAVISVP2,2013-03-06 06:10:00,
2013-03-06 01:15:00,43.6,41.1,29.49,East,85,2.0,4.0,91,0.00,,,0.00,WUHU216DAVISVP2,2013-03-06 06:15:00,
2013-03-06 01:20:00,43.6,41.1,29.49,East,85,2.0,4.0,91,0.00,,,0.00,WUHU216DAVISVP2,2013-03-06 06:20:00,
2013-03-06 01:25:00,43.6,41.1,29.49,East,83,0.0,4.0,91,0.00,,,0.00,WUHU216DAVISVP2,2013-03-06 06:25:00,
2013-03-06 01:30:00,43.5,41.0,29.48,NNW,330,0.0,4.0,91,0.00,,,0.00,WUHU216DAVISVP2,2013-03-06 06:30:00,
2013-03-06 01:35:00,43.6,41.1,29.48,West,265,1.0,6.0,91,0.00,,,0.00,WUHU216DAVISVP2,2013-03-06 06:35:00,
2013-03-06 01:40:00,43.6,41.1,29.48,NNW,333,7.0,7.0,91,0.00,,,0.00,WUHU216DAVISVP2,2013-03-06 06:40:00,
2013-03-06 01:45:00,43.6,41.1,29.48,NW,325,0.0,9.0,91,0.00,,,0.00,WUHU216DAVISVP2,2013-03-06 06:45:00,
2013-03-06 01:50:00,43.6,41.1,29.48,WNW,299,0.0,9.0,91,0.00,,,0.00,WUHU216DAVISVP2,2013-03-06 06:50:00,
2013-03-06 01:55:00,43.6,41.1,29.48,WNW,299,0.0,4.0,91,0.00,,,0.00,WUHU216DAVISVP2,2013-03-06 06:55:00,
2013-03-06 02:00:00,43.5,41.0,29.48,WNW,299,0.0,1.0,91,0.00,,,0.00,WUHU216DAVISVP2,2013-03-06 07:00:00,
2013-03-06 02:06:00,43.3,40.8,29.48,WNW,299,0.0,1.0,91,0.00,,,0.00,WUHU216DAVISVP2,2013-03-06 07:06:00,
2013-03-06 02:11:00,43.2,40.7,29.48,WNW,299,0.0,1.0,91,0.00,,,0.00,WUHU216DAVISVP2,2013-03-06 07:11:00,
2013-03-06 02:16:00,43.2,40.7,29.48,WNW,299,0.0,2.0,91,0.00,,,0.00,WUHU216DAVISVP2,2013-03-06 07:16:00,
2013-03-06 02:21:00,43.2,40.7,29.48,NW,323,0.0,6.0,91,0.00,,,0.00,WUHU216DAVISVP2,2013-03-06 07:21:00,
2013-03-06 02:26:00,43.1,40.6,29.48,NW,318,0.0,6.0,91,0.00,,,0.00,WUHU216DAVISVP2,2013-03-06 07:26:00,
2013-03-06 02:31:00,42.9,40.4,29.48,NW,325,0.0,6.0,91,0.00,,,0.00,WUHU216DAVISVP2,2013-03-06 07:31:00,
2013-03-06 02:37:00,42.8,40.3,29.48,NNW,332,2.0,7.0,91,0.00,,,0.00,WUHU216DAVISVP2,2013-03-06 07:37:00,
2013-03-06 02:42:00,42.9,40.4,29.48,NW,323,6.0,7.0,91,0.00,,,0.00,WUHU216DAVISVP2,2013-03-06 07:42:00,
2013-03-06 02:47:00,42.8,40.3,29.50,NW,316,0.0,9.0,91,0.01,,,0.01,WUHU216DAVISVP2,2013-03-06 07:47:00,
2013-03-06 02:52:00,42.2,39.7,29.50,North,359,2.0,10.0,91,0.01,,,0.01,WUHU216DAVISVP2,2013-03-06 07:52:00,
2013-03-06 02:57:00,42.3,39.8,29.50,North,4,2.0,10.0,91,0.01,,,0.01,WUHU216DAVISVP2,2013-03-06 07:57:00,
2013-03-06 03:02:00,42.1,39.6,29.48,North,357,2.0,8.0,91,0.02,,,0.02,WUHU216DAVISVP2,2013-03-06 08:02:00,
2013-03-06 03:07:00,41.9,39.4,29.48,WNW,285,7.0,7.0,91,0.02,,,0.02,WUHU216DAVISVP2,2013-03-06 08:07:00,
2013-03-06 03:12:00,41.6,39.1,29.48,NNW,328,0.0,8.0,91,0.02,,,0.02,WUHU216DAVISVP2,2013-03-06 08:12:00,
2013-03-06 03:17:00,41.6,39.1,29.49,North,356,4.0,10.0,91,0.02,,,0.02,WUHU216DAVISVP2,2013-03-06 08:17:00,
2013-03-06 03:22:00,41.8,39.3,29.49,North,349,6.0,11.0,91,0.02,,,0.02,WUHU216DAVISVP2,2013-03-06 08:22:00,
2013-03-06 03:27:00,41.1,38.6,29.49,NNW,337,1.0,11.0,91,0.02,,,0.02,WUHU216DAVISVP2,2013-03-06 08:27:00,
2013-03-06 03:32:00,41.2,38.7,29.49,NNW,332,6.0,9.0,91,0.02,,,0.02,WUHU216DAVISVP2,2013-03-06 08:32:00,
2013-03-06 03:37:00,41.2,38.7,29.49,West,267,4.0,9.0,91,0.02,,,0.02,WUHU216DAVISVP2,2013-03-06 08:37:00,
2013-03-06 03:42:00,40.8,38.4,29.49,NNW,333,2.0,14.0,91,0.02,,,0.02,WUHU216DAVISVP2,2013-03-06 08:42:00,
2013-03-06 03:47:00,41.1,38.7,29.50,West,267,9.0,14.0,91,0.01,,,0.02,WUHU216DAVISVP2,2013-03-06 08:47:00,
2013-03-06 03:52:00,40.8,38.4,29.50,WNW,302,1.0,11.0,91,0.01,,,0.02,WUHU216DAVISVP2,2013-03-06 08:52:00,
2013-03-06 03:57:00,41.1,38.6,29.50,WSW,239,0.0,11.0,91,0.01,,,0.02,WUHU216DAVISVP2,2013-03-06 08:57:00,
2013-03-06 04:02:00,40.6,38.1,29.51,NNW,333,6.0,9.0,91,0.00,,,0.02,WUHU216DAVISVP2,2013-03-06 09:02:00,
2013-03-06 04:07:00,40.6,38.1,29.51,NNW,342,1.0,9.0,91,0.00,,,0.02,WUHU216DAVISVP2,2013-03-06 09:07:00,
2013-03-06 04:12:00,40.9,38.4,29.51,West,281,0.0,8.0,91,0.00,,,0.02,WUHU216DAVISVP2,2013-03-06 09:12:00,
2013-03-06 04:17:00,40.5,38.0,29.51,NW,315,6.0,10.0,91,0.00,,,0.02,WUHU216DAVISVP2,2013-03-06 09:17:00,
2013-03-06 04:22:00,40.5,38.1,29.51,WNW,294,2.0,11.0,91,0.00,,,0.02,WUHU216DAVISVP2,2013-03-06 09:22:00,
2013-03-06 04:27:00,40.8,38.4,29.51,NW,325,1.0,11.0,91,0.00,,,0.02,WUHU216DAVISVP2,2013-03-06 09:27:00,
2013-03-06 04:32:00,40.6,38.2,29.52,NW,323,4.0,9.0,91,0.00,,,0.02,WUHU216DAVISVP2,2013-03-06 09:32:00,
2013-03-06 04:37:00,40.8,38.3,29.52,NNW,343,4.0,10.0,91,0.00,,,0.02,WUHU216DAVISVP2,2013-03-06 09:37:00,
2013-03-06 04:42:00,40.5,38.0,29.52,NW,323,0.0,10.0,91,0.00,,,0.02,WUHU216DAVISVP2,2013-03-06 09:42:00,
2013-03-06 04:47:00,40.8,38.3,29.52,NW,326,2.0,9.0,91,0.00,,,0.02,WUHU216DAVISVP2,2013-03-06 09:47:00,
2013-03-06 04:52:00,40.5,38.0,29.52,West,272,1.0,10.0,91,0.00,,,0.02,WUHU216DAVISVP2,2013-03-06 09:52:00,
2013-03-06 04:57:00,40.3,37.8,29.52,NNW,337,0.0,10.0,91,0.00,,,0.02,WUHU216DAVISVP2,2013-03-06 09:57:00,
2013-03-06 05:02:00,40.6,38.2,29.53,WSW,247,6.0,14.0,91,0.00,,,0.02,WUHU216DAVISVP2,2013-03-06 10:02:00,
2013-03-06 05:07:00,40.2,37.8,29.53,NNW,328,8.0,14.0,91,0.00,,,0.02,WUHU216DAVISVP2,2013-03-06 10:07:00,
2013-03-06 05:12:00,39.8,37.4,29.53,WNW,302,6.0,14.0,91,0.00,,,0.02,WUHU216DAVISVP2,2013-03-06 10:12:00,
2013-03-06 05:17:00,39.6,37.1,29.54,NNW,335,6.0,15.0,91,0.00,,,0.02,WUHU216DAVISVP2,2013-03-06 10:17:00,
2013-03-06 05:22:00,39.2,36.8,29.54,WSW,257,8.0,15.0,91,0.00,,,0.02,WUHU216DAVISVP2,2013-03-06 10:22:00,
2013-03-06 05:27:00,38.8,36.4,29.54,North,352,6.0,14.0,91,0.00,,,0.02,WUHU216DAVISVP2,2013-03-06 10:27:00,
2013-03-06 05:32:00,38.5,36.1,29.54,NW,323,6.0,14.0,91,0.00,,,0.02,WUHU216DAVISVP2,2013-03-06 10:32:00,
2013-03-06 05:37:00,38.8,36.4,29.54,SW,232,4.0,11.0,91,0.00,,,0.02,WUHU216DAVISVP2,2013-03-06 10:37:00,
2013-03-06 05:42:00,38.6,36.2,29.54,North,359,6.0,8.0,91,0.00,,,0.02,WUHU216DAVISVP2,2013-03-06 10:42:00,
2013-03-06 05:47:00,38.2,35.8,29.55,West,277,1.0,10.0,91,0.00,,,0.02,WUHU216DAVISVP2,2013-03-06 10:47:00,
2013-03-06 05:52:00,38.2,35.8,29.55,NNW,342,6.0,10.0,91,0.00,,,0.02,WUHU216DAVISVP2,2013-03-06 10:52:00,
2013-03-06 05:58:00,38.2,35.8,29.55,NW,315,1.0,8.0,91,0.00,,,0.02,WUHU216DAVISVP2,2013-03-06 10:58:00,
2013-03-06 06:02:00,38.2,35.8,29.54,WNW,294,2.0,11.0,91,0.00,,,0.02,WUHU216DAVISVP2,2013-03-06 11:02:00,
2013-03-06 06:07:00,37.8,35.4,29.54,North,352,0.0,11.0,91,0.00,,,0.02,WUHU216DAVISVP2,2013-03-06 11:07:00,
2013-03-06 06:12:00,38.0,35.6,29.54,North,354,6.0,11.0,91,0.00,,,0.02,WUHU216DAVISVP2,2013-03-06 11:12:00,
2013-03-06 06:17:00,38.0,35.6,29.55,NNW,343,1.0,11.0,91,0.00,,,0.02,WUHU216DAVISVP2,2013-03-06 11:17:00,
2013-03-06 06:22:00,37.8,35.4,29.55,NNW,339,6.0,11.0,91,0.00,,,0.02,WUHU216DAVISVP2,2013-03-06 11:22:00,
2013-03-06 06:27:00,37.9,35.5,29.55,NW,323,6.0,10.0,91,0.00,,,0.02,WUHU216DAVISVP2,2013-03-06 11:27:00,
2013-03-06 06:32:00,37.9,35.5,29.55,West,263,1.0,11.0,91,0.00,,,0.02,WUHU216DAVISVP2,2013-03-06 11:32:00,
2013-03-06 06:37:00,37.6,35.2,29.55,WNW,295,0.0,11.0,91,0.01,,,0.03,WUHU216DAVISVP2,2013-03-06 11:37:00,
2013-03-06 06:42:00,37.8,35.4,29.55,North,0,2.0,8.0,91,0.01,,,0.03,WUHU216DAVISVP2,2013-03-06 11:42:00,
2013-03-06 06:47:00,37.9,35.5,29.56,SSW,209,0.0,8.0,91,0.01,,,0.03,WUHU216DAVISVP2,2013-03-06 11:47:00,
2013-03-06 06:52:00,37.8,35.4,29.56,West,260,0.0,8.0,91,0.01,,,0.03,WUHU216DAVISVP2,2013-03-06 11:52:00,
2013-03-06 06:57:00,37.8,35.4,29.56,NW,311,2.0,6.0,91,0.01,,,0.03,WUHU216DAVISVP2,2013-03-06 11:57:00,
2013-03-06 07:02:00,37.9,35.5,29.56,WNW,285,2.0,7.0,91,0.01,,,0.03,WUHU216DAVISVP2,2013-03-06 12:02:00,
2013-03-06 07:07:00,38.0,35.6,29.56,WNW,302,1.0,8.0,91,0.01,,,0.03,WUHU216DAVISVP2,2013-03-06 12:07:00,
2013-03-06 07:12:00,37.9,35.5,29.56,North,356,2.0,10.0,91,0.01,,,0.03,WUHU216DAVISVP2,2013-03-06 12:12:00,
2013-03-06 07:17:00,37.9,35.5,29.56,SE,131,4.0,11.0,91,0.01,,,0.03,WUHU216DAVISVP2,2013-03-06 12:17:00,
2013-03-06 07:22:00,37.9,35.5,29.56,West,268,2.0,11.0,91,0.01,,,0.03,WUHU216DAVISVP2,2013-03-06 12:22:00,
2013-03-06 07:28:00,37.6,34.9,29.56,North,0,7.0,15.0,90,0.01,,,0.03,WUHU216DAVISVP2,2013-03-06 12:28:00,
2013-03-06 07:33:00,37.2,34.5,29.57,West,280,4.0,15.0,90,0.01,,,0.03,WUHU216DAVISVP2,2013-03-06 12:33:00,
2013-03-06 07:38:00,37.0,34.3,29.57,NW,323,11.0,15.0,90,0.00,,,0.03,WUHU216DAVISVP2,2013-03-06 12:38:00,
2013-03-06 07:43:00,36.9,33.9,29.57,WSW,241,16.0,18.0,89,0.00,,,0.03,WUHU216DAVISVP2,2013-03-06 12:43:00,
2013-03-06 07:48:00,36.8,33.5,29.58,North,349,9.0,18.0,88,0.00,,,0.03,WUHU216DAVISVP2,2013-03-06 12:48:00,
2013-03-06 07:53:00,36.8,33.6,29.58,NW,326,13.0,16.0,88,0.00,,,0.03,WUHU216DAVISVP2,2013-03-06 12:53:00,
2013-03-06 07:58:00,36.8,33.5,29.58,WNW,298,4.0,13.0,88,0.00,,,0.03,WUHU216DAVISVP2,2013-03-06 12:58:00,
2013-03-06 08:02:00,36.8,33.6,29.58,WNW,298,7.0,13.0,88,0.00,,,0.03,WUHU216DAVISVP2,2013-03-06 13:02:00,
2013-03-06 08:08:00,36.8,33.5,29.58,NNW,328,1.0,11.0,88,0.00,,,0.03,WUHU216DAVISVP2,2013-03-06 13:08:00,
2013-03-06 08:13:00,36.9,33.6,29.58,West,268,4.0,11.0,88,0.00,,,0.03,WUHU216DAVISVP2,2013-03-06 13:13:00,
2013-03-06 08:18:00,36.9,33.6,29.58,NNW,340,2.0,17.0,88,0.00,,,0.03,WUHU216DAVISVP2,2013-03-06 13:18:00,
2013-03-06 08:23:00,37.0,33.7,29.58,North,359,6.0,17.0,88,0.00,,,0.03,WUHU216DAVISVP2,2013-03-06 13:23:00,
2013-03-06 08:28:00,37.2,33.9,29.58,NNW,328,9.0,16.0,88,0.00,,,0.03,WUHU216DAVISVP2,2013-03-06 13:28:00,
2013-03-06 08:33:00,37.3,34.0,29.59,South,186,4.0,13.0,88,0.00,,,0.03,WUHU216DAVISVP2,2013-03-06 13:33:00,
2013-03-06 08:38:00,37.5,34.0,29.59,North,0,4.0,14.0,87,0.00,,,0.03,WUHU216DAVISVP2,2013-03-06 13:38:00,
2013-03-06 08:43:00,37.5,34.0,29.59,NNW,335,2.0,14.0,87,0.00,,,0.03,WUHU216DAVISVP2,2013-03-06 13:43:00,
2013-03-06 08:48:00,37.5,34.0,29.59,North,4,6.0,11.0,87,0.00,,,0.03,WUHU216DAVISVP2,2013-03-06 13:48:00,
2013-03-06 08:53:00,37.6,34.0,29.59,NW,325,4.0,11.0,87,0.00,,,0.03,WUHU216DAVISVP2,2013-03-06 13:53:00,
2013-03-06 08:58:00,37.6,34.0,29.59,NNW,333,9.0,13.0,87,0.00,,,0.03,WUHU216DAVISVP2,2013-03-06 13:58:00,
2013-03-06 09:02:00,37.3,33.5,29.60,North,1,7.0,17.0,86,0.00,,,0.03,WUHU216DAVISVP2,2013-03-06 14:02:00,
2013-03-06 09:08:00,37.2,33.7,29.60,West,267,7.0,17.0,87,0.00,,,0.03,WUHU216DAVISVP2,2013-03-06 14:08:00,
2013-03-06 09:13:00,36.8,33.3,29.60,NNW,335,14.0,14.0,87,0.00,,,0.03,WUHU216DAVISVP2,2013-03-06 14:13:00,
2013-03-06 09:17:00,36.8,33.3,29.60,WSW,251,1.0,14.0,87,0.00,,,0.03,WUHU216DAVISVP2,2013-03-06 14:17:00,
2013-03-06 09:22:00,36.8,33.5,29.60,North,352,8.0,15.0,88,0.00,,,0.03,WUHU216DAVISVP2,2013-03-06 14:22:00,
2013-03-06 09:27:00,36.6,33.4,29.60,North,0,2.0,15.0,88,0.00,,,0.03,WUHU216DAVISVP2,2013-03-06 14:27:00,
2013-03-06 09:32:00,36.9,33.6,29.60,WNW,296,10.0,14.0,88,0.00,,,0.03,WUHU216DAVISVP2,2013-03-06 14:32:00,
2013-03-06 09:37:00,36.9,33.6,29.60,NW,308,8.0,14.0,88,0.00,,,0.03,WUHU216DAVISVP2,2013-03-06 14:37:00,
2013-03-06 09:43:00,37.2,33.7,29.60,NW,306,6.0,18.0,87,0.00,,,0.03,WUHU216DAVISVP2,2013-03-06 14:43:00,
2013-03-06 09:48:00,37.5,34.0,29.60,WNW,294,10.0,18.0,87,0.00,,,0.03,WUHU216DAVISVP2,2013-03-06 14:48:00,
2013-03-06 09:53:00,37.6,33.5,29.60,WSW,253,0.0,16.0,85,0.00,,,0.03,WUHU216DAVISVP2,2013-03-06 14:53:00,
2013-03-06 09:58:00,37.8,33.4,29.60,NW,319,7.0,16.0,84,0.00,,,0.03,WUHU216DAVISVP2,2013-03-06 14:58:00,
2013-03-06 10:03:00,37.9,33.5,29.60,West,272,9.0,16.0,84,0.00,,,0.03,WUHU216DAVISVP2,2013-03-06 15:03:00,
2013-03-06 10:08:00,37.3,32.6,29.60,WNW,289,13.0,22.0,83,0.00,,,0.03,WUHU216DAVISVP2,2013-03-06 15:08:00,
2013-03-06 10:13:00,37.0,32.6,29.60,NW,319,10.0,22.0,84,0.00,,,0.03,WUHU216DAVISVP2,2013-03-06 15:13:00,
2013-03-06 10:18:00,37.0,32.3,29.60,NNW,343,10.0,18.0,83,0.00,,,0.03,WUHU216DAVISVP2,2013-03-06 15:18:00,
2013-03-06 10:23:00,37.5,32.8,29.60,NNW,346,13.0,18.0,83,0.00,,,0.03,WUHU216DAVISVP2,2013-03-06 15:23:00,
2013-03-06 10:28:00,37.9,33.2,29.60,North,7,8.0,17.0,83,0.00,,,0.03,WUHU216DAVISVP2,2013-03-06 15:28:00,
2013-03-06 10:33:00,38.0,32.7,29.61,North,0,9.0,17.0,81,0.00,,,0.03,WUHU216DAVISVP2,2013-03-06 15:33:00,
2013-03-06 10:37:00,38.5,32.9,29.61,WNW,287,8.0,21.0,80,0.00,,,0.03,WUHU216DAVISVP2,2013-03-06 15:37:00,
2013-03-06 10:42:00,38.5,32.9,29.61,North,7,9.0,21.0,80,0.00,,,0.03,WUHU216DAVISVP2,2013-03-06 15:42:00,
2013-03-06 10:48:00,38.5,32.6,29.61,NW,323,2.0,21.0,79,0.00,,,0.03,WUHU216DAVISVP2,2013-03-06 15:48:00,
2013-03-06 10:53:00,38.8,33.2,29.61,NW,322,10.0,18.0,80,0.00,,,0.03,WUHU216DAVISVP2,2013-03-06 15:53:00,
2013-03-06 10:57:00,38.8,32.2,29.61,WNW,292,9.0,17.0,77,0.00,,,0.03,WUHU216DAVISVP2,2013-03-06 15:57:00,
2013-03-06 11:03:00,38.8,32.9,29.61,West,267,11.0,18.0,79,0.00,,,0.03,WUHU216DAVISVP2,2013-03-06 16:03:00,
2013-03-06 11:07:00,38.3,32.0,29.61,NNW,329,9.0,18.0,78,0.00,,,0.03,WUHU216DAVISVP2,2013-03-06 16:07:00,
2013-03-06 11:13:00,38.2,32.3,29.61,West,263,14.0,22.0,79,0.00,,,0.03,WUHU216DAVISVP2,2013-03-06 16:13:00,
2013-03-06 11:17:00,38.3,32.4,29.61,NNW,329,2.0,22.0,79,0.00,,,0.03,WUHU216DAVISVP2,2013-03-06 16:17:00,
2013-03-06 11:22:00,38.6,32.1,29.61,NNW,347,7.0,16.0,77,0.00,,,0.03,WUHU216DAVISVP2,2013-03-06 16:22:00,
2013-03-06 11:27:00,38.9,32.7,29.61,NW,313,4.0,16.0,78,0.00,,,0.03,WUHU216DAVISVP2,2013-03-06 16:27:00,
2013-03-06 11:32:00,39.2,32.6,29.62,NNW,339,11.0,22.0,77,0.00,,,0.03,WUHU216DAVISVP2,2013-03-06 16:32:00,
2013-03-06 11:37:00,39.5,32.6,29.62,North,0,10.0,22.0,76,0.00,,,0.03,WUHU216DAVISVP2,2013-03-06 16:37:00,
2013-03-06 11:42:00,39.6,32.1,29.62,NW,323,11.0,25.0,74,0.00,,,0.03,WUHU216DAVISVP2,2013-03-06 16:42:00,
2013-03-06 11:47:00,39.8,32.2,29.62,North,359,6.0,25.0,74,0.00,,,0.03,WUHU216DAVISVP2,2013-03-06 16:47:00,
2013-03-06 11:52:00,39.9,32.3,29.62,North,349,10.0,14.0,74,0.00,,,0.03,WUHU216DAVISVP2,2013-03-06 16:52:00,
2013-03-06 11:57:00,39.9,32.3,29.62,North,352,7.0,16.0,74,0.00,,,0.03,WUHU216DAVISVP2,2013-03-06 16:57:00,
2013-03-06 12:02:00,40.1,31.9,29.62,North,350,7.0,17.0,72,0.00,,,0.03,WUHU216DAVISVP2,2013-03-06 17:02:00,
2013-03-06 12:08:00,40.2,32.0,29.62,SSE,165,7.0,17.0,72,0.00,,,0.03,WUHU216DAVISVP2,2013-03-06 17:08:00,
2013-03-06 12:13:00,40.2,32.0,29.62,NNW,335,7.0,21.0,72,0.00,,,0.03,WUHU216DAVISVP2,2013-03-06 17:13:00,
2013-03-06 12:18:00,40.3,32.1,29.62,NW,320,8.0,21.0,72,0.00,,,0.03,WUHU216DAVISVP2,2013-03-06 17:18:00,
2013-03-06 12:23:00,40.5,31.9,29.62,North,8,15.0,18.0,71,0.00,,,0.03,WUHU216DAVISVP2,2013-03-06 17:23:00,
2013-03-06 12:28:00,40.6,32.0,29.62,NNW,335,8.0,21.0,71,0.00,,,0.03,WUHU216DAVISVP2,2013-03-06 17:28:00,
2013-03-06 12:33:00,40.8,31.9,29.62,NNW,339,8.0,24.0,70,0.00,,,0.03,WUHU216DAVISVP2,2013-03-06 17:33:00,
2013-03-06 12:38:00,40.8,31.9,29.62,NNW,328,11.0,24.0,70,0.00,,,0.03,WUHU216DAVISVP2,2013-03-06 17:38:00,
2013-03-06 12:43:00,40.8,31.8,29.62,WNW,295,10.0,23.0,70,0.00,,,0.03,WUHU216DAVISVP2,2013-03-06 17:43:00,
2013-03-06 12:48:00,40.9,31.9,29.63,SW,232,16.0,16.0,70,0.00,,,0.03,WUHU216DAVISVP2,2013-03-06 17:48:00,
2013-03-06 12:53:00,41.1,31.8,29.63,North,0,4.0,16.0,69,0.00,,,0.03,WUHU216DAVISVP2,2013-03-06 17:53:00,
2013-03-06 12:58:00,41.2,32.2,29.63,NNW,335,9.0,16.0,70,0.00,,,0.03,WUHU216DAVISVP2,2013-03-06 17:58:00,
2013-03-06 13:03:00,41.3,32.3,29.63,NW,305,14.0,18.0,70,0.00,,,0.03,WUHU216DAVISVP2,2013-03-06 18:03:00,
2013-03-06 13:08:00,41.5,32.2,29.63,NW,319,14.0,21.0,69,0.00,,,0.03,WUHU216DAVISVP2,2013-03-06 18:08:00,
2013-03-06 13:13:00,41.6,32.6,29.63,North,354,8.0,21.0,70,0.00,,,0.03,WUHU216DAVISVP2,2013-03-06 18:13:00,
2013-03-06 13:18:00,41.5,32.5,29.64,NW,305,13.0,23.0,70,0.00,,,0.03,WUHU216DAVISVP2,2013-03-06 18:18:00,
2013-03-06 13:23:00,40.9,32.6,29.64,NNW,340,10.0,30.0,72,0.00,,,0.03,WUHU216DAVISVP2,2013-03-06 18:23:00,
2013-03-06 13:28:00,40.6,33.0,29.64,WNW,302,9.0,30.0,74,0.00,,,0.03,WUHU216DAVISVP2,2013-03-06 18:28:00,
2013-03-06 13:33:00,40.3,33.1,29.65,WNW,298,14.0,15.0,75,0.00,,,0.03,WUHU216DAVISVP2,2013-03-06 18:33:00,
2013-03-06 13:38:00,40.2,33.6,29.65,North,352,9.0,22.0,77,0.00,,,0.03,WUHU216DAVISVP2,2013-03-06 18:38:00,
2013-03-06 13:43:00,40.1,33.5,29.65,NW,311,15.0,22.0,77,0.00,,,0.03,WUHU216DAVISVP2,2013-03-06 18:43:00,
2013-03-06 13:48:00,40.2,33.6,29.65,NNW,335,9.0,24.0,77,0.00,,,0.03,WUHU216DAVISVP2,2013-03-06 18:48:00,
2013-03-06 13:53:00,40.5,33.9,29.65,West,261,7.0,24.0,77,0.00,,,0.03,WUHU216DAVISVP2,2013-03-06 18:53:00,
2013-03-06 13:58:00,40.9,34.3,29.65,NNW,336,10.0,16.0,77,0.00,,,0.03,WUHU216DAVISVP2,2013-03-06 18:58:00,
2013-03-06 14:03:00,41.2,34.3,29.65,NW,306,9.0,20.0,76,0.00,,,0.03,WUHU216DAVISVP2,2013-03-06 19:03:00,
2013-03-06 14:08:00,41.5,34.2,29.65,SW,233,9.0,20.0,75,0.00,,,0.03,WUHU216DAVISVP2,2013-03-06 19:08:00,
2013-03-06 14:13:00,41.6,34.3,29.65,NW,311,4.0,15.0,75,0.00,,,0.03,WUHU216DAVISVP2,2013-03-06 19:13:00,
2013-03-06 14:18:00,41.8,34.2,29.67,North,357,7.0,20.0,74,0.00,,,0.03,WUHU216DAVISVP2,2013-03-06 19:18:00,
2013-03-06 14:23:00,41.9,34.3,29.67,NNW,336,8.0,20.0,74,0.00,,,0.03,WUHU216DAVISVP2,2013-03-06 19:23:00,
2013-03-06 14:28:00,42.3,34.3,29.67,North,353,9.0,20.0,73,0.00,,,0.03,WUHU216DAVISVP2,2013-03-06 19:28:00,
2013-03-06 14:33:00,42.6,34.6,29.66,NW,320,17.0,23.0,73,0.00,,,0.03,WUHU216DAVISVP2,2013-03-06 19:33:00,
2013-03-06 14:38:00,43.1,34.8,29.66,NW,309,7.0,23.0,72,0.00,,,0.03,WUHU216DAVISVP2,2013-03-06 19:38:00,
2013-03-06 14:43:00,43.6,34.9,29.66,WNW,296,7.0,21.0,71,0.00,,,0.03,WUHU216DAVISVP2,2013-03-06 19:43:00,
2013-03-06 14:48:00,43.9,35.2,29.67,NW,319,6.0,21.0,71,0.00,,,0.03,WUHU216DAVISVP2,2013-03-06 19:48:00,
2013-03-06 14:53:00,43.9,34.8,29.67,NW,325,8.0,21.0,70,0.00,,,0.03,WUHU216DAVISVP2,2013-03-06 19:53:00,
2013-03-06 14:58:00,43.9,35.2,29.67,NW,325,11.0,20.0,71,0.00,,,0.03,WUHU216DAVISVP2,2013-03-06 19:58:00,
2013-03-06 15:03:00,43.9,34.8,29.69,North,0,8.0,17.0,70,0.00,,,0.03,WUHU216DAVISVP2,2013-03-06 20:03:00,
2013-03-06 15:08:00,43.9,34.8,29.69,NNW,335,4.0,17.0,70,0.00,,,0.03,WUHU216DAVISVP2,2013-03-06 20:08:00,
2013-03-06 15:13:00,43.9,34.8,29.69,North,0,8.0,22.0,70,0.00,,,0.03,WUHU216DAVISVP2,2013-03-06 20:13:00,
2013-03-06 15:18:00,43.9,34.8,29.70,NNW,328,2.0,22.0,70,0.00,,,0.03,WUHU216DAVISVP2,2013-03-06 20:18:00,
2013-03-06 15:23:00,43.9,34.8,29.70,North,356,10.0,17.0,70,0.00,,,0.03,WUHU216DAVISVP2,2013-03-06 20:23:00,
2013-03-06 15:28:00,43.9,34.8,29.70,North,350,4.0,22.0,70,0.00,,,0.03,WUHU216DAVISVP2,2013-03-06 20:28:00,
2013-03-06 15:33:00,43.9,34.8,29.71,NNE,13,8.0,22.0,70,0.00,,,0.03,WUHU216DAVISVP2,2013-03-06 20:33:00,
2013-03-06 15:38:00,43.9,34.8,29.71,NNW,330,9.0,17.0,70,0.00,,,0.03,WUHU216DAVISVP2,2013-03-06 20:38:00,
2013-03-06 15:43:00,43.9,34.5,29.71,North,8,9.0,17.0,69,0.00,,,0.03,WUHU216DAVISVP2,2013-03-06 20:43:00,
2013-03-06 15:48:00,43.8,34.4,29.73,West,278,4.0,18.0,69,0.00,,,0.03,WUHU216DAVISVP2,2013-03-06 20:48:00,
2013-03-06 15:53:00,43.8,34.7,29.73,NW,322,13.0,18.0,70,0.00,,,0.03,WUHU216DAVISVP2,2013-03-06 20:53:00,
2013-03-06 15:58:00,43.8,34.6,29.73,NNW,329,13.0,18.0,70,0.00,,,0.03,WUHU216DAVISVP2,2013-03-06 20:58:00,
2013-03-06 16:03:00,43.9,34.7,29.74,WNW,289,10.0,15.0,70,0.00,,,0.03,WUHU216DAVISVP2,2013-03-06 21:03:00,
2013-03-06 16:08:00,43.9,34.8,29.74,West,277,10.0,15.0,70,0.00,,,0.03,WUHU216DAVISVP2,2013-03-06 21:08:00,
2013-03-06 16:13:00,43.9,34.5,29.74,North,354,7.0,21.0,69,0.00,,,0.03,WUHU216DAVISVP2,2013-03-06 21:13:00,
2013-03-06 16:18:00,44.1,34.7,29.75,North,350,14.0,21.0,69,0.00,,,0.03,WUHU216DAVISVP2,2013-03-06 21:18:00,
2013-03-06 16:23:00,44.1,34.7,29.75,NW,325,6.0,16.0,69,0.00,,,0.03,WUHU216DAVISVP2,2013-03-06 21:23:00,
2013-03-06 16:28:00,44.1,34.7,29.75,East,82,10.0,14.0,69,0.00,,,0.03,WUHU216DAVISVP2,2013-03-06 21:28:00,
2013-03-06 16:33:00,44.1,34.7,29.77,NW,318,9.0,24.0,69,0.00,,,0.03,WUHU216DAVISVP2,2013-03-06 21:33:00,
2013-03-06 16:38:00,43.9,34.8,29.77,North,353,9.0,24.0,70,0.00,,,0.03,WUHU216DAVISVP2,2013-03-06 21:38:00,
2013-03-06 16:43:00,43.8,34.7,29.77,NNW,332,7.0,17.0,70,0.00,,,0.03,WUHU216DAVISVP2,2013-03-06 21:43:00,
2013-03-06 16:48:00,43.6,34.9,29.78,North,10,9.0,17.0,71,0.00,,,0.03,WUHU216DAVISVP2,2013-03-06 21:48:00,
2013-03-06 16:53:00,43.5,34.7,29.78,NNE,32,2.0,17.0,71,0.00,,,0.03,WUHU216DAVISVP2,2013-03-06 21:53:00,
2013-03-06 16:58:00,43.3,35.0,29.78,North,350,2.0,17.0,72,0.00,,,0.03,WUHU216DAVISVP2,2013-03-06 21:58:00,
2013-03-06 17:03:00,43.2,34.9,29.79,North,356,6.0,14.0,72,0.00,,,0.03,WUHU216DAVISVP2,2013-03-06 22:03:00,
2013-03-06 17:08:00,43.1,35.1,29.79,NW,311,6.0,14.0,73,0.00,,,0.03,WUHU216DAVISVP2,2013-03-06 22:08:00,
2013-03-06 17:13:00,42.9,34.9,29.79,WNW,298,11.0,14.0,73,0.00,,,0.03,WUHU216DAVISVP2,2013-03-06 22:13:00,
2013-03-06 17:18:00,42.6,34.6,29.81,North,352,8.0,17.0,73,0.00,,,0.03,WUHU216DAVISVP2,2013-03-06 22:18:00,
2013-03-06 17:23:00,42.3,34.9,29.81,North,0,2.0,17.0,75,0.00,,,0.03,WUHU216DAVISVP2,2013-03-06 22:23:00,
2013-03-06 17:28:00,42.2,34.8,29.81,NW,323,4.0,16.0,75,0.00,,,0.03,WUHU216DAVISVP2,2013-03-06 22:28:00,
2013-03-06 17:33:00,41.9,34.9,29.82,NW,320,2.0,15.0,76,0.00,,,0.03,WUHU216DAVISVP2,2013-03-06 22:33:00,
2013-03-06 17:38:00,41.8,35.2,29.82,North,6,7.0,15.0,77,0.00,,,0.03,WUHU216DAVISVP2,2013-03-06 22:38:00,
2013-03-06 17:43:00,41.6,35.0,29.82,NNW,330,1.0,15.0,77,0.00,,,0.03,WUHU216DAVISVP2,2013-03-06 22:43:00,
2013-03-06 17:48:00,41.5,35.2,29.84,North,7,7.0,15.0,78,0.00,,,0.03,WUHU216DAVISVP2,2013-03-06 22:48:00,
2013-03-06 17:53:00,41.3,35.0,29.84,NNW,336,1.0,11.0,78,0.00,,,0.03,WUHU216DAVISVP2,2013-03-06 22:53:00,
2013-03-06 17:58:00,41.2,35.2,29.84,NNW,335,2.0,9.0,79,0.00,,,0.03,WUHU216DAVISVP2,2013-03-06 22:58:00,
2013-03-06 18:03:00,41.2,35.5,29.85,North,0,2.0,14.0,80,0.00,,,0.03,WUHU216DAVISVP2,2013-03-06 23:03:00,
2013-03-06 18:08:00,41.2,35.5,29.85,NW,306,11.0,14.0,80,0.00,,,0.03,WUHU216DAVISVP2,2013-03-06 23:08:00,
2013-03-06 18:13:00,41.2,35.5,29.85,NW,316,4.0,11.0,80,0.00,,,0.03,WUHU216DAVISVP2,2013-03-06 23:13:00,
2013-03-06 18:18:00,41.2,35.5,29.87,NNW,333,4.0,10.0,80,0.00,,,0.03,WUHU216DAVISVP2,2013-03-06 23:18:00,
2013-03-06 18:23:00,41.2,35.5,29.87,NNW,346,0.0,10.0,80,0.00,,,0.03,WUHU216DAVISVP2,2013-03-06 23:23:00,
2013-03-06 18:28:00,41.2,35.5,29.87,NW,320,0.0,8.0,80,0.00,,,0.03,WUHU216DAVISVP2,2013-03-06 23:28:00,
2013-03-06 18:33:00,41.3,35.6,29.88,North,357,7.0,9.0,80,0.00,,,0.03,WUHU216DAVISVP2,2013-03-06 23:33:00,
2013-03-06 18:38:00,41.5,35.8,29.88,NNE,14,0.0,9.0,80,0.00,,,0.03,WUHU216DAVISVP2,2013-03-06 23:38:00,
2013-03-06 18:43:00,41.5,35.8,29.88,NNE,21,0.0,9.0,80,0.00,,,0.03,WUHU216DAVISVP2,2013-03-06 23:43:00,
2013-03-06 18:48:00,41.5,35.8,29.89,North,0,4.0,9.0,80,0.00,,,0.03,WUHU216DAVISVP2,2013-03-06 23:48:00,
2013-03-06 18:53:00,41.6,35.6,29.89,North,350,7.0,8.0,79,0.00,,,0.03,WUHU216DAVISVP2,2013-03-06 23:53:00,
2013-03-06 18:58:00,41.5,35.5,29.89,NW,313,1.0,8.0,79,0.00,,,0.03,WUHU216DAVISVP2,2013-03-06 23:58:00,
2013-03-06 19:03:00,41.6,35.3,29.90,NNW,333,7.0,8.0,78,0.00,,,0.03,WUHU216DAVISVP2,2013-03-07 00:03:00,
2013-03-06 19:08:00,41.8,35.5,29.90,North,0,1.0,17.0,78,0.00,,,0.03,WUHU216DAVISVP2,2013-03-07 00:08:00,
2013-03-06 19:13:00,41.9,35.3,29.90,NNW,329,0.0,17.0,77,0.00,,,0.03,WUHU216DAVISVP2,2013-03-07 00:13:00,
2013-03-06 19:18:00,41.9,35.3,29.91,NW,319,4.0,11.0,77,0.00,,,0.03,WUHU216DAVISVP2,2013-03-07 00:18:00,
2013-03-06 19:23:00,42.1,35.1,29.91,NNW,335,2.0,9.0,76,0.00,,,0.03,WUHU216DAVISVP2,2013-03-07 00:23:00,
2013-03-06 19:28:00,42.1,35.1,29.91,NNW,337,6.0,9.0,76,0.00,,,0.03,WUHU216DAVISVP2,2013-03-07 00:28:00,
2013-03-06 19:33:00,42.2,34.9,29.91,West,274,8.0,9.0,75,0.00,,,0.03,WUHU216DAVISVP2,2013-03-07 00:33:00,
2013-03-06 19:38:00,42.2,34.6,29.91,NW,325,9.0,13.0,74,0.00,,,0.03,WUHU216DAVISVP2,2013-03-07 00:38:00,
2013-03-06 19:43:00,42.3,34.3,29.91,North,350,6.0,14.0,73,0.00,,,0.03,WUHU216DAVISVP2,2013-03-07 00:43:00,
2013-03-06 19:48:00,42.3,34.0,29.93,NNW,339,1.0,15.0,72,0.00,,,0.03,WUHU216DAVISVP2,2013-03-07 00:48:00,
2013-03-06 19:53:00,42.2,33.8,29.93,WNW,289,2.0,15.0,72,0.00,,,0.03,WUHU216DAVISVP2,2013-03-07 00:53:00,
2013-03-06 19:58:00,42.2,33.5,29.93,NNW,347,7.0,13.0,71,0.00,,,0.03,WUHU216DAVISVP2,2013-03-07 00:58:00,
2013-03-06 20:03:00,42.2,33.2,29.94,North,359,2.0,13.0,70,0.00,,,0.03,WUHU216DAVISVP2,2013-03-07 01:03:00,
2013-03-06 20:08:00,42.2,33.2,29.94,North,6,8.0,13.0,70,0.00,,,0.03,WUHU216DAVISVP2,2013-03-07 01:08:00,
2013-03-06 20:13:00,42.3,32.9,29.94,NNW,342,1.0,11.0,69,0.00,,,0.03,WUHU216DAVISVP2,2013-03-07 01:13:00,
2013-03-06 20:18:00,42.3,32.9,29.94,NW,315,6.0,20.0,69,0.00,,,0.03,WUHU216DAVISVP2,2013-03-07 01:18:00,
2013-03-06 20:23:00,42.5,32.8,29.94,NNW,333,8.0,20.0,68,0.00,,,0.03,WUHU216DAVISVP2,2013-03-07 01:23:00,
2013-03-06 20:28:00,42.5,32.8,29.94,North,354,4.0,16.0,68,0.00,,,0.03,WUHU216DAVISVP2,2013-03-07 01:28:00,
2013-03-06 20:33:00,42.3,32.6,29.95,NNE,30,9.0,16.0,68,0.00,,,0.03,WUHU216DAVISVP2,2013-03-07 01:33:00,
2013-03-06 20:38:00,42.3,32.1,29.95,NW,322,9.0,14.0,67,0.00,,,0.03,WUHU216DAVISVP2,2013-03-07 01:38:00,
2013-03-06 20:43:00,42.2,32.1,29.95,NW,319,11.0,14.0,67,0.00,,,0.03,WUHU216DAVISVP2,2013-03-07 01:43:00,
2013-03-06 20:48:00,42.3,32.1,29.95,WNW,298,1.0,13.0,67,0.00,,,0.03,WUHU216DAVISVP2,2013-03-07 01:48:00,
2013-03-06 20:53:00,42.2,32.1,29.95,NNW,330,4.0,11.0,67,0.00,,,0.03,WUHU216DAVISVP2,2013-03-07 01:53:00,
2013-03-06 20:58:00,42.2,32.1,29.95,NNW,346,8.0,16.0,67,0.00,,,0.03,WUHU216DAVISVP2,2013-03-07 01:58:00,
2013-03-06 21:03:00,42.2,32.1,29.96,North,4,1.0,18.0,67,0.00,,,0.03,WUHU216DAVISVP2,2013-03-07 02:03:00,
2013-03-06 21:08:00,42.2,31.7,29.96,NNW,347,6.0,18.0,66,0.00,,,0.03,WUHU216DAVISVP2,2013-03-07 02:08:00,
2013-03-06 21:13:00,42.3,31.8,29.96,NW,315,8.0,16.0,66,0.00,,,0.03,WUHU216DAVISVP2,2013-03-07 02:13:00,
2013-03-06 21:18:00,42.2,32.1,29.96,NNW,329,0.0,16.0,67,0.00,,,0.03,WUHU216DAVISVP2,2013-03-07 02:18:00,
2013-03-06 21:23:00,42.1,31.6,29.96,North,354,4.0,13.0,66,0.00,,,0.03,WUHU216DAVISVP2,2013-03-07 02:23:00,
2013-03-06 21:28:00,41.9,31.5,29.96,NNW,337,4.0,11.0,66,0.00,,,0.03,WUHU216DAVISVP2,2013-03-07 02:28:00,
2013-03-06 21:33:00,41.8,31.7,29.96,NW,316,4.0,9.0,67,0.00,,,0.03,WUHU216DAVISVP2,2013-03-07 02:33:00,
2013-03-06 21:38:00,41.5,31.4,29.96,North,352,1.0,9.0,67,0.00,,,0.03,WUHU216DAVISVP2,2013-03-07 02:38:00,
2013-03-06 21:44:00,41.2,31.2,29.97,North,359,1.0,8.0,67,0.00,,,0.03,WUHU216DAVISVP2,2013-03-07 02:44:00,
2013-03-06 21:49:00,41.1,31.1,29.97,NNW,340,0.0,7.0,67,0.00,,,0.03,WUHU216DAVISVP2,2013-03-07 02:49:00,
2013-03-06 21:54:00,40.8,31.1,29.97,WNW,302,0.0,6.0,68,0.00,,,0.03,WUHU216DAVISVP2,2013-03-07 02:54:00,
2013-03-06 21:59:00,40.5,30.9,29.98,West,261,0.0,7.0,68,0.00,,,0.03,WUHU216DAVISVP2,2013-03-07 02:59:00,
2013-03-06 22:05:00,40.2,30.9,29.98,North,350,0.0,7.0,69,0.00,,,0.03,WUHU216DAVISVP2,2013-03-07 03:05:00,
2013-03-06 22:09:00,39.9,30.9,29.98,NW,305,0.0,6.0,70,0.00,,,0.03,WUHU216DAVISVP2,2013-03-07 03:09:00,
2013-03-06 22:14:00,39.6,30.7,29.98,NW,326,0.0,4.0,70,0.00,,,0.03,WUHU216DAVISVP2,2013-03-07 03:14:00,
2013-03-06 22:19:00,39.5,30.6,29.98,NNW,328,6.0,6.0,70,0.00,,,0.03,WUHU216DAVISVP2,2013-03-07 03:19:00,
2013-03-06 22:24:00,39.1,30.2,29.98,WNW,291,0.0,6.0,70,0.00,,,0.03,WUHU216DAVISVP2,2013-03-07 03:24:00,
2013-03-06 22:29:00,38.8,30.3,29.98,WNW,291,0.0,6.0,71,0.00,,,0.03,WUHU216DAVISVP2,2013-03-07 03:29:00,
2013-03-06 22:34:00,38.5,30.3,29.98,WNW,295,0.0,4.0,72,0.00,,,0.03,WUHU216DAVISVP2,2013-03-07 03:34:00,
2013-03-06 22:39:00,38.3,30.1,29.98,North,356,0.0,7.0,72,0.00,,,0.03,WUHU216DAVISVP2,2013-03-07 03:39:00,
2013-03-06 22:44:00,38.2,30.0,29.98,WNW,292,0.0,7.0,72,0.00,,,0.03,WUHU216DAVISVP2,2013-03-07 03:44:00,
2013-03-06 22:49:00,38.0,29.8,29.98,NW,322,2.0,7.0,72,0.00,,,0.03,WUHU216DAVISVP2,2013-03-07 03:49:00,
2013-03-06 22:54:00,38.0,29.8,29.98,NNW,333,1.0,8.0,72,0.00,,,0.03,WUHU216DAVISVP2,2013-03-07 03:54:00,
2013-03-06 22:59:00,37.8,29.6,29.98,NW,325,2.0,8.0,72,0.00,,,0.03,WUHU216DAVISVP2,2013-03-07 03:59:00,
2013-03-06 23:04:00,37.6,29.5,29.98,NW,312,0.0,6.0,72,0.00,,,0.03,WUHU216DAVISVP2,2013-03-07 04:04:00,
2013-03-06 23:09:00,37.6,29.5,29.98,West,267,0.0,6.0,72,0.00,,,0.03,WUHU216DAVISVP2,2013-03-07 04:09:00,
2013-03-06 23:14:00,37.5,29.4,29.98,NW,325,2.0,6.0,72,0.00,,,0.03,WUHU216DAVISVP2,2013-03-07 04:14:00,
2013-03-06 23:19:00,37.3,29.4,29.98,NW,322,0.0,6.0,73,0.00,,,0.03,WUHU216DAVISVP2,2013-03-07 04:19:00,
2013-03-06 23:24:00,37.5,29.7,29.98,NNW,343,0.0,8.0,73,0.00,,,0.03,WUHU216DAVISVP2,2013-03-07 04:24:00,
2013-03-06 23:29:00,37.3,29.4,29.99,NW,318,1.0,8.0,73,0.00,,,0.03,WUHU216DAVISVP2,2013-03-07 04:29:00,
2013-03-06 23:34:00,37.3,29.5,29.99,NNW,328,0.0,7.0,73,0.00,,,0.03,WUHU216DAVISVP2,2013-03-07 04:34:00,
2013-03-06 23:39:00,37.3,29.5,29.99,WNW,302,0.0,7.0,73,0.00,,,0.03,WUHU216DAVISVP2,2013-03-07 04:39:00,
2013-03-06 23:44:00,37.5,29.6,29.99,NNW,347,0.0,7.0,73,0.00,,,0.03,WUHU216DAVISVP2,2013-03-07 04:44:00,
2013-03-06 23:49:00,37.5,29.7,29.99,North,0,2.0,7.0,73,0.00,,,0.03,WUHU216DAVISVP2,2013-03-07 04:49:00,
2013-03-06 23:54:00,37.6,29.5,29.99,NNW,337,6.0,9.0,72,0.00,,,0.03,WUHU216DAVISVP2,2013-03-07 04:54:00,
2013-03-06 23:59:00,37.6,29.4,29.99,WNW,295,0.0,9.0,72,0.00,,,0.03,WUHU216DAVISVP2,2013-03-07 04:59:00,